Location: Ward Pound Ridge Reservation
(41.2500°N, 73.6000°W)
Time: 12:16:39
(UTC-05:00)

Vanguard 2 - Visible Passes

Search period start: 16 January 2018 00:00
Search period end: 26 January 2018 00:00
Orbit: 552 x 2940 km, 32.9° (Epoch: 16 January)

Date Brightness Start Highest point End Pass type
(mag) Time Alt. Az. Time Alt. Az. Time Alt. Az.
16 Jan 10.8 02:33:19 20° SE 02:33:19 20° SE 02:41:17 10° E visible
16 Jan 10.2 04:34:46 26° SW 04:41:20 48° SSE 04:56:26 10° E visible
16 Jan 10.6 06:39:12 10° WSW 06:52:09 63° S 07:09:38 10° ESE visible
17 Jan 10.5 02:50:41 26° SE 02:50:41 26° SE 03:00:27 10° E visible
17 Jan 10.2 04:52:08 25° SW 04:59:11 54° SSE 05:14:48 10° E visible
18 Jan 10.2 03:08:00 33° SE 03:08:00 33° SE 03:19:14 10° E visible
18 Jan 10.1 05:09:26 23° WSW 05:17:09 58° SSE 05:33:06 10° E visible
19 Jan 9.9 03:25:14 39° SSE 03:25:29 40° SSE 03:37:47 10° E visible
19 Jan 10.1 05:26:40 20° WSW 05:35:11 60° S 05:51:22 10° E visible
20 Jan 11.3 01:41:00 11° ESE 01:41:00 11° ESE 01:41:27 10° E visible
20 Jan 9.7 03:42:26 45° SSE 03:43:14 46° SSE 03:56:12 10° E visible
20 Jan 10.1 05:43:52 16° WSW 05:53:15 60° S 06:09:33 10° ESE visible
21 Jan 11.1 01:58:09 15° ESE 01:58:09 15° ESE 02:00:38 10° E visible
21 Jan 9.5 03:59:35 48° S 04:01:05 51° SSE 04:14:33 10° E visible
21 Jan 10.2 06:01:01 12° W 06:11:22 59° S 06:27:39 10° ESE visible
22 Jan 10.8 02:15:17 20° ESE 02:15:17 20° ESE 02:19:22 10° E visible
22 Jan 9.4 04:16:43 47° SSW 04:19:01 55° S 04:32:50 10° E visible
22 Jan 10.3 06:18:30 10° W 06:29:27 55° S 06:45:37 10° ESE visible
23 Jan 10.5 02:32:24 25° ESE 02:32:24 25° ESE 02:37:52 10° E visible
23 Jan 9.4 04:33:49 43° SW 04:37:01 56° S 04:51:04 10° ESE visible
23 Jan 10.5 06:36:35 10° W 06:47:32 50° SSW 07:03:25 10° SE visible
24 Jan 10.2 02:49:30 31° ESE 02:49:30 31° ESE 02:56:14 10° E visible
24 Jan 9.5 04:50:55 37° WSW 04:55:04 56° S 05:09:14 10° ESE visible
25 Jan 9.9 03:06:35 38° SE 03:06:35 38° SE 03:14:33 10° E visible
25 Jan 9.7 05:08:01 30° WSW 05:13:08 53° S 05:27:16 10° ESE visible
